Weather in Vila do Porto

Portugal     36°57′20″N   25°08′31″W
temp.,
°C
wind,
m/s
gust,
m/s
humid.,
%
clouds,
%
prec.,
mm/h
press.,
hPa
HPBL,
m
15 june, tue
tue1500:00+21nne7982100 0.0 1029766
03:00+20nne788172 0.1 1028765
06:00+20n7882100 0.1 1028746
09:00+20n5780100 0.1 1028657
12:00+21n46787 0.1 1028676
15:00+21nnw44785 0.0 1027550
18:00+21ne22770 0.1 1026422
21:00+21n2381100 0.0 1027416
16 june, wed
wed1600:00+21nw3486100 0.0 1027236
03:00+20nw5586100 0.0 1025328
06:00+20nw778784 0.0 1024460
09:00+20wnw7887100 0.0 1025524
12:00+21nw81090100 0.0 1025621
15:00+21nnw788896 0.8 1024535
18:00+20ne668541 1.0 1024518
21:00+20ne668298 0.1 1026493
17 june, thu
thu1700:00+20ne5577100 0.1 1026605
03:00+19ne5573100 0.0 1025726
06:00+19ne4371100 0.0 1025706
09:00+19ene4471100 0.0 1027753
12:00+19e4372100 0.0 1027763
15:00+19e3269100 0.0 1027703
18:00+19ese2268100 0.0 1027645
21:00+18ese4378100 0.6 1027453
18 june, fri
fri1800:00+18se5585100 1.7 1027392
03:00+18se5588100 1.3 1026436
06:00+18ese6689100 2.1 1025509
09:00+18ese6588100 0.8 1026514
12:00+18se558650 0.9 1026457
15:00+19se448437 0.0 1025456
18:00+19ese338186 0.0 1025583
21:00+19ese2278100 0.0 1026652
19 june, sat
sat1900:00+19ene0076100 0.0 1026562
03:00+19w2279100 0.1 1025265
06:00+19w3382100 0.1 1025329
09:00+20wnw45837 0.0 1026458
12:00+21wnw66861 0.0 1026428
15:00+21wnw79890 0.0 1025491
18:00+21wnw810880 0.0 1024403
21:00+21nw710890 0.0 1025337